GW2632 Weather Reports


Display with metric or nautical units.
time (UTC)temp
F
wind
direction
speed
MPH
gust
MPH
rain 1hr
in
rain 24hr
in
rain mn
in
humidity
%
barometer
mb
20260901235343 81 301 0.0 2.0 0.00 0.34 0.34 85 1016.1
20260901234838 81 12 0.0 2.0 0.00 0.34 0.34 85 1016.4
20260901234332 81 15 0.0 2.0 0.00 0.34 0.34 84 1016.1
20260901233827 81 181 2.0 2.0 0.00 0.34 0.34 84 1016.4
20260901233323 81 4 0.0 1.0 0.00 0.34 0.34 83 1016.3
20260901232818 81 269 0.0 2.0 0.00 0.34 0.34 82 1016.3
20260901232313 81 148 2.0 3.0 0.00 0.34 0.34 81 1016.0
20260901231809 82 294 0.0 1.0 0.00 0.34 0.34 82 1016.2
20260901231305 82 359 0.0 2.0 0.00 0.34 0.34 80 1015.8
20260901230801 82 256 0.0 2.0 0.00 0.34 0.34 81 1016.1
20260901230300 82 259 1.0 2.0 0.00 0.34 0.34 82 1015.9
20260901225756 82 74 0.0 2.0 0.00 0.34 0.34 81 1015.8
20260901225250 82 182 0.0 2.0 0.00 0.34 0.34 80 1015.9
20260901224746 82 295 1.0 3.0 0.00 0.34 0.34 81 1015.8
20260901224242 82 35 0.0 3.0 0.00 0.34 0.34 80 1016.0
20260901223738 83 255 0.0 0.0 0.00 0.34 0.34 80 1015.9
20260901223238 83 38 0.0 1.0 0.00 0.34 0.34 80 1015.9
20260901222734 83 329 1.0 1.0 0.00 0.34 0.34 81 1015.7
20260901222230 83 281 1.0 1.0 0.00 0.34 0.34 81 1015.9
20260901221726 83 224 0.0 1.0 0.00 0.34 0.34 80 1015.8
20260901221222 83 240 1.0 2.0 0.00 0.34 0.34 78 1015.6
20260901220721 83 220 0.0 2.0 0.00 0.34 0.34 79 1015.8
20260901220221 83 173 2.0 2.0 0.00 0.34 0.34 78 1015.5
20260901215719 83 17 0.0 1.0 0.00 0.34 0.34 78 1015.4
20260901215214 83 300 1.0 2.0 0.00 0.34 0.34 78 1015.3
20260901214712 83 264 1.0 2.0 0.00 0.34 0.34 77 1015.3
20260901214206 83 201 3.0 3.0 0.00 0.34 0.34 75 1015.3
20260901213706 84 124 3.0 5.0 0.00 0.34 0.34 75 1015.2
20260901213201 84 356 4.0 4.0 0.00 0.34 0.34 73 1015.2
20260901212700 85 345 2.0 3.0 0.00 0.34 0.34 73 1015.3
20260901212156 85 217 2.0 4.0 0.00 0.34 0.34 73 1015.5
20260901211656 86 238 2.0 3.0 0.00 0.34 0.34 76 1015.5
20260901211153 86 109 2.0 3.0 0.00 0.34 0.34 77 1015.4
20260901210648 86 157 2.0 2.0 0.00 0.34 0.34 81 1015.3
20260901210144 85 321 0.0 2.0 0.00 0.34 0.34 81 1015.4
20260901205639 85 169 0.0 3.0 0.00 0.34 0.34 83 1015.5
20260901205140 84 313 1.0 3.0 0.00 0.34 0.34 84 1015.7
20260901204635 84 0 2.0 4.0 0.00 0.34 0.34 87 1015.7
20260901204130 84 304 0.0 1.0 0.00 0.34 0.34 89 1015.5
20260901203625 83 244 1.0 1.0 0.00 0.34 0.34 89 1015.6
20260901203120 82 308 0.0 1.0 0.00 0.34 0.34 90 1015.6
20260901202620 82 284 0.0 0.0 0.00 0.34 0.34 92 1015.7
20260901202116 82 236 0.0 1.0 0.00 0.34 0.34 90 1015.7
20260901201611 82 315 0.0 1.0 0.00 0.34 0.34 92 1016.0
20260901201110 82 213 0.0 1.0 0.00 0.34 0.34 92 1016.0
20260901200610 82 207 0.0 0.0 0.00 0.34 0.34 94 1015.5
20260901200105 81 335 0.0 1.0 0.00 0.34 0.34 94 1015.6
20260901195603 81 307 0.0 2.0 0.00 0.34 0.34 93 1016.0
20260901195102 80 329 1.0 2.0 0.00 0.34 0.34 92 1015.9
20260901194558 80 277 0.0 2.0 0.00 0.34 0.34 92 1016.0
20260901194053 80 154 0.0 0.0 0.02 0.34 0.34 94 1016.1
20260901193548 80 151 0.0 0.0 0.02 0.34 0.34 94 1016.0
20260901193043 80 337 0.0 4.0 0.00 0.34 0.34 92 1016.2
20260901192538 80 289 0.0 1.0 0.00 0.34 0.34 93 1016.2
20260901192033 80 233 0.0 2.0 0.00 0.34 0.34 92 1016.5
20260901191530 80 288 2.0 3.0 0.00 0.34 0.34 91 1016.3
20260901191026 80 280 1.0 1.0 0.00 0.34 0.34 93 1016.1
20260901190520 80 308 0.0 3.0 0.02 0.34 0.34 93 1016.4
20260901190020 80 295 1.0 2.0 0.05 0.34 0.34 93 1016.7
20260901185513 80 345 1.0 2.0 0.00 0.33 0.33 93 1016.4
20260901185012 80 312 0.0 2.0 0.00 0.33 0.33 92 1016.5
20260901184508 80 317 2.0 2.0 0.00 0.33 0.33 92 1016.6
20260901184003 80 344 0.0 3.0 0.00 0.33 0.33 92 1016.4
20260901183457 79 204 1.0 2.0 0.00 0.33 0.33 92 1016.7
20260901182953 79 277 2.0 2.0 0.38 0.33 0.33 91 1016.6
20260901182449 79 344 0.0 3.0 0.92 0.32 0.32 88 1016.9
20260901181948 79 314 1.0 2.0 1.11 0.25 0.25 85 1017.0
20260901181443 80 0 2.0 3.0 0.66 0.15 0.15 82 1017.2
20260901180942 80 312 0.0 4.0 0.07 0.05 0.05 82 1017.1
20260901180442 81 287 3.0 3.0 0.17 0.04 0.04 77 1017.1
20260901175940 84 283 2.0 6.0 0.12 0.03 0.03 75 1016.8
20260901175435 88 305 7.0 9.0 0.00 0.01 0.01 66 1016.9
20260901174930 91 163 4.0 5.0 0.00 0.01 0.01 65 1016.8
20260901174426 90 40 1.0 4.0 0.00 0.01 0.01 68 1017.0
20260901173922 89 301 0.0 3.0 0.00 0.01 0.01 69 1017.0
20260901173422 90 237 0.0 3.0 0.00 0.01 0.01 70 1017.2
20260901172918 89 265 2.0 3.0 0.00 0.01 0.01 69 1017.2
20260901172413 87 169 2.0 4.0 0.00 0.01 0.01 74 1017.2
20260901171911 86 130 3.0 5.0 0.02 0.01 0.01 74 1017.2
20260901171409 85 110 1.0 3.0 0.02 0.01 0.01 75 1017.3
20260901170909 85 56 2.0 3.0 0.00 0.01 0.01 74 1017.5
20260901170404 85 259 0.0 3.0 0.00 0.01 0.01 76 1017.6
20260901165903 85 63 0.0 5.0 0.00 0.01 0.01 72 1017.5
20260901165403 84 154 0.0 3.0 0.00 0.01 0.01 72 1017.6
20260901164900 84 71 0.0 3.0 0.00 0.01 0.01 70 1017.8
20260901164355 84 236 1.0 3.0 0.02 0.01 0.01 70 1017.7
20260901163854 85 328 2.0 3.0 0.05 0.01 0.01 67 1017.7
20260901163350 87 46 2.0 4.0 0.00 0.00 0.00 62 1017.6
20260901162845 89 37 3.0 10.0 0.00 0.00 0.00 61 1017.5
20260901162344 88 131 6.0 9.0 0.00 0.00 0.00 63 1017.8
20260901161844 88 69 3.0 6.0 0.00 0.00 0.00 63 1017.7
20260901161338 92 119 3.0 7.0 0.00 0.00 0.00 60 1017.5
20260901160833 92 231 2.0 4.0 0.00 0.00 0.00 60 1017.7
20260901160330 92 115 4.0 4.0 0.00 0.00 0.00 59 1017.6
20260901155829 91 221 2.0 4.0 0.00 0.00 0.00 58 1017.8
20260901155323 91 58 2.0 4.0 0.00 0.00 0.00 60 1017.6
20260901154821 90 227 0.0 3.0 0.00 0.00 0.00 63 1017.6
20260901154319 90 83 4.0 4.0 0.00 0.00 0.00 61 1017.9
20260901153814 90 173 0.0 3.0 0.00 0.00 0.00 61 1017.7
20260901153314 90 323 2.0 4.0 0.00 0.00 0.00 61 1017.9
20260901152813 90 97 2.0 2.0 0.00 0.00 0.00 61 1017.7
20260901152312 90 180 3.0 4.0 0.00 0.00 0.00 63 1017.5
20260901151808 89 137 2.0 2.0 0.00 0.00 0.00 65 1017.9
20260901151302 88 263 2.0 5.0 0.00 0.00 0.00 64 1017.9
20260901150801 88 56 2.0 4.0 0.00 0.00 0.00 67 1017.8
20260901150259 87 100 2.0 5.0 0.00 0.00 0.00 66 1017.7
20260901145758 87 241 0.0 5.0 0.00 0.00 0.00 67 1017.7
20260901145257 87 70 2.0 4.0 0.00 0.00 0.00 69 1017.6
20260901144753 88 262 1.0 2.0 0.00 0.00 0.00 67 1017.7
20260901144249 89 62 2.0 3.0 0.00 0.00 0.00 66 1017.8
20260901143744 89 302 0.0 4.0 0.00 0.00 0.00 68 1017.7
20260901143240 88 186 0.0 3.0 0.00 0.00 0.00 69 1017.5
20260901142736 86 352 2.0 2.0 0.00 0.00 0.00 70 1017.6
20260901142235 87 265 1.0 3.0 0.00 0.00 0.00 69 1017.6
20260901141731 88 248 0.0 4.0 0.00 0.00 0.00 69 1017.6
20260901141230 88 226 2.0 4.0 0.00 0.00 0.00 70 1017.6
20260901140729 88 274 0.0 5.0 0.00 0.00 0.00 72 1017.4
20260901140228 87 3 1.0 2.0 0.00 0.00 0.00 75 1017.2
20260901135723 86 132 0.0 2.0 0.00 0.00 0.00 79 1017.3
20260901135218 85 275 1.0 4.0 0.00 0.00 0.00 76 1017.3
20260901134714 86 63 1.0 3.0 0.00 0.00 0.00 75 1017.3
20260901134209 86 297 2.0 3.0 0.00 0.00 0.00 78 1017.4
20260901133708 86 164 1.0 4.0 0.00 0.00 0.00 75 1017.5
20260901133207 86 95 0.0 3.0 0.00 0.00 0.00 78 1017.3
20260901132706 86 282 1.0 4.0 0.00 0.00 0.00 78 1017.5
20260901132206 86 101 0.0 2.0 0.00 0.00 0.00 78 1017.2
20260901131701 86 127 1.0 2.0 0.00 0.00 0.00 78 1017.2
20260901131200 86 34 0.0 3.0 0.00 0.00 0.00 79 1017.3
20260901130655 86 293 0.0 1.0 0.00 0.00 0.00 81 1017.3
20260901130154 85 188 0.0 2.0 0.00 0.00 0.00 84 1017.4
20260901125653 85 61 0.0 2.0 0.00 0.00 0.00 86 1017.4
20260901125148 84 48 2.0 2.0 0.00 0.00 0.00 87 1017.3
20260901124643 83 65 0.0 3.0 0.00 0.00 0.00 90 1017.4
20260901124142 83 174 0.0 2.0 0.00 0.00 0.00 91 1017.3
20260901123637 81 253 0.0 2.0 0.00 0.00 0.00 95 1017.1
20260901123137 80 84 0.0 2.0 0.00 0.00 0.00 98 1017.3
20260901122636 80 262 0.0 0.0 0.00 0.00 0.00 99 1017.1
20260901122130 79 61 0.0 1.0 0.00 0.00 0.00 99 1017.0
20260901121625 78 318 0.0 1.0 0.00 0.00 0.00 99 1016.8
20260901121121 77 311 0.0 1.0 0.00 0.00 0.00 99 1016.8
20260901120620 77 294 0.0 2.0 0.00 0.00 0.00 99 1016.9
20260901120116 77 122 0.0 1.0 0.00 0.00 0.00 99 1016.8
20260901115611 77 3 0.0 0.0 0.00 0.00 0.00 99 1017.0
20260901115108 77 281 2.0 2.0 0.00 0.00 0.00 99 1016.8
20260901114604 76 337 0.0 0.0 0.00 0.00 0.00 99 1016.8
20260901114103 76 308 0.0 0.0 0.00 0.00 0.00 99 1016.6
20260901113601 76 299 0.0 0.0 0.00 0.00 0.00 99 1016.8
20260901113057 76 299 0.0 1.0 0.00 0.00 0.00 99 1016.8
20260901112557 76 230 0.0 0.0 0.00 0.00 0.00 99 1016.6
20260901112052 76 323 0.0 1.0 0.00 0.00 0.00 99 1016.6
20260901111550 76 233 0.0 2.0 0.00 0.00 0.00 99 1016.5
20260901111049 76 315 0.0 0.0 0.00 0.00 0.00 99 1016.3
20260901110545 76 315 0.0 0.0 0.00 0.00 0.00 99 1016.5
20260901110040 76 311 0.0 1.0 0.00 0.00 0.00 99 1016.5
20260901105537 76 313 0.0 1.0 0.00 0.00 0.00 99 1016.2
20260901105036 76 320 0.0 1.0 0.00 0.00 0.00 99 1016.2
20260901104533 76 301 0.0 0.0 0.00 0.00 0.00 99 1016.3
20260901104027 76 315 0.0 0.0 0.00 0.00 0.00 99 1016.2
20260901103522 76 288 0.0 0.0 0.00 0.00 0.00 99 1016.2
20260901103018 76 315 0.0 1.0 0.00 0.00 0.00 99 1016.1
20260901102517 76 319 0.0 1.0 0.00 0.00 0.00 99 1016.1
20260901102012 76 145 0.0 0.0 0.00 0.00 0.00 99 1015.9
20260901101508 76 269 0.0 0.0 0.00 0.00 0.00 99 1016.1
20260901101007 76 230 0.0 0.0 0.00 0.00 0.00 99 1015.9
20260901100502 76 315 0.0 0.0 0.00 0.00 0.00 99 1015.8
20260901100001 76 319 0.0 0.0 0.00 0.00 0.00 99 1016.1
20260901095500 76 331 0.0 1.0 0.00 0.00 0.00 99 1016.0
20260901094958 76 326 0.0 1.0 0.00 0.00 0.00 99 1015.7
20260901094453 76 337 0.0 0.0 0.00 0.00 0.00 99 1016.1
20260901093953 76 325 0.0 0.0 0.00 0.00 0.00 99 1016.1
20260901093453 76 307 0.0 1.0 0.00 0.00 0.00 99 1016.0
20260901092953 76 288 0.0 0.0 0.00 0.00 0.00 99 1015.9
20260901092449 76 288 0.0 0.0 0.00 0.00 0.00 99 1015.8
20260901091945 76 315 0.0 0.0 0.00 0.00 0.00 99 1015.9
20260901091440 76 291 0.0 0.0 0.00 0.00 0.00 99 1015.8
20260901090935 76 315 0.0 0.0 0.00 0.00 0.00 99 1015.6
20260901090434 76 315 0.0 0.0 0.00 0.00 0.00 99 1015.9
20260901085930 76 329 0.0 0.0 0.00 0.00 0.00 99 1015.8
20260901085426 76 304 0.0 0.0 0.00 0.00 0.00 99 1015.7
20260901084922 76 315 0.0 0.0 0.00 0.00 0.00 99 1015.9
20260901084418 76 315 0.0 1.0 0.00 0.00 0.00 99 1015.7
20260901083913 76 220 0.0 0.0 0.00 0.00 0.00 99 1015.9
20260901083408 75 149 0.0 0.0 0.00 0.00 0.00 99 1015.9
20260901082906 75 318 0.0 2.0 0.00 0.00 0.00 99 1015.7
20260901082401 75 312 0.0 1.0 0.00 0.00 0.00 99 1015.7
20260901081856 75 167 0.0 0.0 0.00 0.00 0.00 99 1015.7
20260901081352 75 319 0.0 0.0 0.00 0.00 0.00 98 1015.8
20260901080851 75 323 0.0 0.0 0.00 0.00 0.00 98 1015.8
20260901080346 75 239 0.0 0.0 0.00 0.00 0.00 98 1015.9
20260901075846 75 325 0.0 0.0 0.00 0.00 0.00 98 1015.8
20260901075341 75 337 0.0 0.0 0.00 0.00 0.00 98 1016.2
20260901074836 75 325 0.0 0.0 0.00 0.00 0.00 98 1016.0
20260901074330 75 44 0.0 0.0 0.00 0.00 0.00 98 1015.8
20260901073826 75 7 0.0 0.0 0.00 0.00 0.00 98 1015.9
20260901073321 75 311 0.0 0.0 0.00 0.00 0.00 98 1015.9
20260901072817 75 294 0.0 0.0 0.00 0.00 0.00 98 1015.9
20260901072317 75 297 0.0 0.0 0.00 0.00 0.00 98 1016.2
20260901071813 75 329 0.0 0.0 0.00 0.00 0.00 98 1016.1
20260901071311 75 30 0.0 0.0 0.00 0.00 0.00 98 1016.0
20260901070810 75 297 0.0 0.0 0.00 0.00 0.00 98 1016.1
20260901070305 75 297 0.0 0.0 0.00 0.00 0.00 98 1016.2
20260901065805 75 312 0.0 1.0 0.00 0.00 0.00 98 1016.0
20260901065300 75 341 0.0 0.0 0.00 0.00 0.00 98 1016.2
20260901064756 75 341 0.0 0.0 0.00 0.00 0.00 98 1016.1
20260901064252 75 312 0.0 0.0 0.00 0.00 0.00 98 1016.3
20260901063749 75 57 0.0 0.0 0.00 0.00 0.00 98 1016.4
20260901063245 75 311 0.0 0.0 0.00 0.00 0.00 98 1016.3
20260901062741 75 311 0.0 0.0 0.00 0.00 0.00 98 1016.4
20260901062237 75 293 0.0 0.0 0.00 0.00 0.00 98 1016.7
20260901061733 75 299 0.0 0.0 0.00 0.00 0.00 98 1016.8
20260901061232 76 268 0.0 0.0 0.00 0.00 0.00 98 1016.7
20260901060727 76 294 0.0 1.0 0.00 0.00 0.00 98 1017.0
20260901060223 76 299 1.0 1.0 0.00 0.00 0.00 98 1016.9
20260901055718 76 298 0.0 1.0 0.00 0.00 0.00 98 1017.0
20260901055214 76 319 0.0 1.0 0.00 0.00 0.00 98 1017.3
20260901054711 76 311 0.0 1.0 0.00 0.00 0.00 98 1017.2
20260901054208 76 311 0.0 1.0 0.00 0.00 0.00 98 1017.1
20260901053703 76 328 0.0 1.0 0.00 0.00 0.00 98 1017.3
20260901053158 76 308 0.0 1.0 0.00 0.00 0.00 98 1017.1
20260901052654 76 319 0.0 0.0 0.00 0.00 0.00 98 1017.2
20260901052149 76 319 0.0 0.0 0.00 0.00 0.00 98 1017.2
20260901051648 76 287 0.0 1.0 0.00 0.00 0.00 98 1017.4
20260901051148 76 279 1.0 1.0 0.00 0.00 0.00 97 1017.4
20260901050643 76 287 0.0 1.0 0.00 0.00 0.00 97 1017.5
20260901050138 76 315 0.0 0.0 0.00 0.00 0.00 97 1017.5
20260901045638 76 303 0.0 1.0 0.00 0.00 0.00 97 1017.6
20260901045133 76 328 0.0 0.0 0.00 0.00 0.00 97 1017.6
20260901044628 76 300 0.0 0.0 0.00 0.00 0.00 97 1017.8
20260901044125 76 303 0.0 1.0 0.00 0.00 0.00 97 1017.6
20260901043620 76 312 0.0 1.0 0.00 0.00 0.00 97 1017.8
20260901043116 76 328 0.0 0.0 0.00 0.00 0.00 96 1017.7
20260901042614 76 303 0.0 1.0 0.00 0.00 0.00 96 1017.6
20260901042110 76 328 0.0 1.0 0.00 0.00 0.00 96 1017.6
20260901041606 76 308 0.0 2.0 0.00 0.00 0.00 96 1017.5
20260901041100 76 351 0.0 2.0 0.00 0.00 0.00 97 1017.5
20260901040600 77 289 2.0 2.0 0.00 0.00 0.00 97 1017.8
20260901040054 77 297 0.0 0.0 0.00 0.09 0.09 97 1017.4
20260901035552 77 305 0.0 2.0 0.00 0.09 0.09 97 1017.5
20260901035051 77 315 0.0 1.0 0.02 0.09 0.09 97 1017.4
20260901034551 77 289 1.0 1.0 0.02 0.09 0.09 97 1017.4
20260901034051 77 238 0.0 0.0 0.00 0.08 0.08 97 1017.6
20260901033550 77 308 0.0 1.0 0.00 0.08 0.08 97 1017.6
20260901033045 77 337 0.0 2.0 0.00 0.08 0.08 97 1017.4
20260901032544 77 311 0.0 1.0 0.00 0.08 0.08 97 1017.6
20260901032039 77 315 0.0 0.0 0.00 0.08 0.08 97 1017.6
20260901031534 77 125 0.0 1.0 0.00 0.08 0.08 97 1017.6
20260901031030 77 266 0.0 1.0 0.00 0.08 0.08 97 1017.8
20260901030530 78 319 0.0 0.0 0.00 0.08 0.08 97 1017.8
20260901030031 78 293 0.0 1.0 0.00 0.08 0.08 97 1017.9
20260901025525 78 277 0.0 1.0 0.00 0.08 0.08 97 1017.9
20260901025024 78 308 0.0 1.0 0.00 0.08 0.08 97 1017.8
20260901024519 78 327 0.0 0.0 0.00 0.08 0.08 97 1017.7
20260901024018 78 323 0.0 1.0 0.00 0.08 0.08 97 1017.7
20260901023512 78 315 0.0 0.0 0.00 0.08 0.08 97 1017.8
20260901023008 78 288 0.0 0.0 0.00 0.08 0.08 97 1017.6
20260901022504 78 277 0.0 0.0 0.00 0.08 0.08 97 1017.9
20260901022003 78 319 0.0 0.0 0.00 0.08 0.08 97 1017.5
20260901021459 78 299 0.0 0.0 0.00 0.08 0.08 97 1017.6
20260901020954 78 293 0.0 1.0 0.00 0.08 0.08 97 1017.7
20260901020450 78 289 1.0 1.0 0.00 0.08 0.08 96 1017.6
20260901015948 78 317 1.0 1.0 0.00 0.08 0.08 96 1017.5
20260901015445 78 288 0.0 0.0 0.00 0.08 0.08 96 1017.3
20260901014945 78 240 0.0 1.0 0.00 0.08 0.08 96 1017.4
20260901014441 78 300 0.0 1.0 0.00 0.08 0.08 96 1017.3
20260901013936 78 324 1.0 1.0 0.00 0.08 0.08 96 1017.0
20260901013432 78 289 0.0 1.0 0.00 0.08 0.08 96 1017.4
20260901012927 78 280 0.0 1.0 0.00 0.08 0.08 96 1017.1
20260901012422 78 324 1.0 1.0 0.00 0.08 0.08 96 1016.9
20260901011917 78 330 0.0 0.0 0.00 0.08 0.08 96 1016.9
20260901011414 78 304 0.0 1.0 0.00 0.08 0.08 96 1016.8
20260901010911 78 308 0.0 1.0 0.00 0.08 0.08 96 1016.9
20260901010407 78 315 0.0 1.0 0.00 0.08 0.08 95 1017.2
20260901005906 78 294 0.0 1.0 0.00 0.08 0.08 95 1016.9
20260901005401 78 320 0.0 0.0 0.02 0.08 0.08 95 1017.0
20260901004856 78 305 0.0 0.0 0.02 0.08 0.08 95 1016.8
20260901004355 78 305 0.0 0.0 0.00 0.08 0.08 95 1017.0
20260901003850 78 301 0.0 0.0 0.02 0.08 0.08 95 1016.6
20260901003345 78 297 0.0 1.0 0.02 0.08 0.08 94 1016.9
20260901002843 78 318 0.0 0.0 0.02 0.07 0.07 94 1016.6
20260901002343 78 335 0.0 0.0 0.02 0.07 0.07 94 1016.5
20260901001843 78 310 1.0 1.0 0.00 0.07 0.07 94 1016.9
20260901001339 78 279 0.0 1.0 0.02 0.07 0.07 93 1016.6
20260901000835 78 239 0.0 1.0 0.02 0.07 0.07 94 1016.8
20260901000330 78 277 0.0 0.0 0.00 0.07 0.07 93 1016.4
20260831235828 78 257 0.0 0.0 0.00 0.07 0.07 93 1016.7